Terug naar catalogus

STARLINK-36831

ActiefCommunicatieVLEO
NORAD 67864·PAYLOAD·🇺🇸 United States

Gelanceerd Feb 20, 2026 vanaf Vandenberg Space Force Base

Loading…

Volgende Passages (komende 24 uur)

TLE

VersSource: CelesTrak SupGP

Epoch: Sep 15, 2026, 03:55 UTC

1 67864C 26034Q   26258.16368056  .00016450  00000+0  48594-3 0  2580
2 67864  53.1597  42.3325 0001183  90.4648 163.2365 15.34387585    12

Volg STARLINK-36831 in realtime met AllMySat

Download on the App Store